Flag for Australia Weather past 2 weeks in Geelong, Victoria, Australia

Now
47 °F

Cool.


Feels Like: 41 °F
Forecast: 41 / 52 °F
Wind: 16 mph from West

Location: Geelong Airport Aws

Current Time: Jul 2, 2015 at 11:21:32 AM

Latest Report: Jul 2, 2015 at 9:00 AM


Visibility: N/A

Pressure: 30.17 "Hg

Humidity: 92%

Dew point: 45 °F

Location of GeelongLocation

Historic Weather in Geelong — Graph

°F

Geelong temperature yesterday

Maximum temperature yesterday: 57 °F (at 12:00 PM)
Minimum temperature yesterday: 48 °F (at 12:00 AM)
Average temperature yesterday: 53 °F

Past Weeks' High & Low Weather Summary

 TemperatureHumidityPressure
High60 °F (Jun 23, 2:00 PM)95% (Jun 17, 2:00 PM)30.54 "Hg (Jun 17, 2:00 PM)
Low38 °F (Jun 21, 8:00 AM)49% (Jul 1, 12:00 PM)29.91 "Hg (Jun 17, 2:00 PM)
Average51 °F82%30.29 "Hg
* Reported Jun 17 9:00 AM — Jul 2 9:00 AM, Geelong, Weather by CustomWeather, © 2015

Note: Actual official high and low records may vary slightly from our data, if they occured in-between our weather recording intervals... More about our weather records

Advertising

Geelong weather history for previous 24 hours

 ConditionsComfort  
Time TempWeatherWind HumidityBarometerVisibility
9:00 AM
Thu, Jul 2
47 °FCool.16 mph92%30.17 "HgN/A
8:00 AM48 °FCool.14 mph86%30.13 "HgN/A
6:00 AM49 °FCool.8 mph92%30.08 "HgN/A
5:00 AM51 °FCool.6 mph93%30.08 "HgN/A
3:00 AM51 °FCool.14 mph93%30.07 "HgN/A
2:00 AM54 °FCool.17 mph78%30.06 "HgN/A
12:00 AM54 °FCool.12 mph75%30.10 "HgN/A
11:00 PM
Wed, Jul 1
54 °FCool.12 mph75%30.11 "HgN/A
9:00 PM53 °FCool.10 mph75%30.15 "HgN/A
8:00 PM53 °FCool.9 mph69%30.16 "HgN/A
6:00 PM54 °FCool.9 mph62%30.17 "HgN/A
5:00 PM56 °FRefreshingly cool.9 mph57%30.17 "HgN/A
3:00 PM57 °FRefreshingly cool.13 mph57%30.19 "HgN/A
2:00 PM56 °FRefreshingly cool.15 mph56%30.22 "HgN/A
12:00 PM57 °FRefreshingly cool.12 mph49%30.27 "HgN/A
11:00 AM56 °FRefreshingly cool.8 mph58%30.31 "HgN/A
Weather by CustomWeather, © 2015

See weather overviewHow to use our weather pages